Flag for Germany Weather past 2 weeks in Gerolstein, Rhineland-Palatinate, Germany

Now
33 °F

Snow. Low clouds.


Feels Like: 33 °F
Forecast: 33 / 38 °F
Wind: 2 mph from Southwest

Location: Nuerburg-Barweiler

Current Time: Jan 25, 2015 at 8:20:08 PM

Latest Report: Jan 25, 2015 at 7:00 PM


Visibility: 4 mi

Pressure: 30.43 "Hg

Humidity: 97%

Dew point: 32 °F

Location of GerolsteinLocation

Historic Weather in Gerolstein — Graph

°F

Gerolstein temperature yesterday

Maximum temperature yesterday: 33 °F (at 6:00 PM)
Minimum temperature yesterday: 27 °F (at 1:00 AM)
Average temperature yesterday: 29 °F

Past Weeks' High & Low Weather Summary

 TemperatureHumidityPressure
High47 °F (Jan 13, 1:00 PM)100% (Jan 23, 3:00 AM)30.46 "Hg (Jan 23, 3:00 AM)
Low23 °F (Jan 19, 7:00 AM)66% (Jan 13, 1:00 PM)29.50 "Hg (Jan 15, 3:00 PM)
Average33 °F90%30.00 "Hg
* Reported Jan 10 7:00 PM — Jan 25 7:00 PM, Gerolstein, Weather by CustomWeather, © 2014

Note: Actual official high and low records may vary slightly from our data, if they occured in-between our weather recording intervals... More about our weather records

Advertising

Gerolstein weather history for previous 24 hours

 ConditionsComfort  
Time TempWeatherWind HumidityBarometerVisibility
7:00 PM
Jan 25
33 °FSnow. Low clouds.2 mph97%30.43 "Hg4 mi
6:00 PM33 °FLight snow. Low clouds.3 mph96%30.42 "Hg6 mi
5:00 PM34 °FLight snow. Low clouds.3 mph94%30.42 "Hg7 mi
4:00 PM34 °FLight snow. Low clouds.3 mph91%30.42 "Hg8 mi
3:00 PM35 °FOvercast.3 mph88%30.41 "Hg14 mi
2:00 PM35 °FLow clouds.2 mph88%30.42 "Hg12 mi
1:00 PM35 °FLow clouds.3 mph90%30.42 "Hg12 mi
12:00 PM34 °FLow clouds.3 mph92%30.45 "Hg11 mi
11:00 AM33 °FLow clouds.2 mph95%30.46 "Hg11 mi
9:00 AM30 °FLow clouds.3 mph97%30.45 "Hg12 mi
8:00 AM30 °FLow clouds.3 mph96%30.45 "Hg12 mi
7:00 AM31 °FOvercast.3 mph96%30.43 "Hg16 mi
6:00 AM30 °FLow clouds.3 mph96%30.42 "Hg16 mi
3:00 AM32 °FLow clouds.3 mph96%30.39 "Hg7 mi
2:00 AM32 °FLow clouds.5 mph96%30.37 "Hg8 mi
1:00 AM32 °FLow clouds.5 mph96%30.37 "HgN/A
12:00 AM32 °FLow clouds.6 mph96%30.35 "HgN/A
10:00 PM
Jan 24
33 °FLow clouds.7 mph96%30.32 "HgN/A
9:00 PM33 °FLow clouds.7 mph95%30.30 "Hg17 mi
8:00 PM33 °FLow clouds.8 mph95%30.28 "Hg17 mi
Weather by CustomWeather, © 2014

See weather overviewHow to use our weather pages